Content
SEND FEEDBACK

Daily
Averages
Monthly
Summary
United States of America

STATEN ISLAND, NEW YORK


Home > North America > United States > New York
Elevation: 152 feet     Latitude: 40 35N     Longitude: 074 09W

WEATHER
 
SELECT A DAY
Number of Records: 192,328;   Date Range: 1/1/95 - 10/19/14
 
SHARE

PRINT THIS DATA

[ ← Previous Day ]
WEATHER ALMANAC - MARCH 23, 2013
[ Next Day → ]
[ °C ]   °F
Weather ElementAverageHighLow
Temperature40.1 °F48.2 °F (4:05 pm)30 °F (4:51 am)
Dewpoint17.6 °F21 °F (1:51 am)14 °F (7:51 pm)
Humidity42.2 %66 % (4:51 am)27 % (4:05 pm)
Barometer29.88 in29.94 in (10:51 pm)29.83 in (3:51 pm)
Wind Speed16.3 mph27.6 mph (12:51 pm)
Wind Gust40.3 mph (12:51 pm)
Weather ElementAverage
Visibility10 mi
Wind DirectionWNW (282.9 °)

Weather ElementTotal
Precipitation---
Heating Degree Days25.9 (Base 65)
Averaged from 24 records on March 23, 2013
WEATHER CONDITIONS BREAKOUT
WIND DIRECTION BREAKOUT
WEATHER BY HOUR - MARCH 23, 2013
[ °C ]   °F
Local TimeTemperatureDewpointHumidityBarometerVisibilityWind DirectionWind SpeedGust SpeedPrecipitationEventsConditions
1:51 AM33.1 °F21.0 °F61 %29.89 in10.0 miWSW (240°)6.9 mphScattered Clouds
2:51 AM33.1 °F21.0 °F61 %29.89 in10.0 miWSW (240°)5.8 mphMostly Cloudy
3:51 AM32.0 °F19.9 °F61 %29.87 in10.0 miSW (220°)9.2 mphPartly Cloudy
4:51 AM30.0 °F19.9 °F66 %29.87 in10.0 miSW (220°)8.1 mphPartly Cloudy
5:51 AM32.0 °F19.9 °F61 %29.89 in10.0 miWest (260°)11.5 mphPartly Cloudy
6:51 AM32.0 °F19.0 °F59 %29.89 in10.0 miWest (280°)15.0 mphPartly Cloudy
7:51 AM34.0 °F19.0 °F54 %29.90 in10.0 miWest (280°)15.0 mphPartly Cloudy
8:51 AM37.0 °F19.0 °F48 %29.90 in10.0 miWest (280°)13.8 mph23.0 mphPartly Cloudy
9:51 AM39.9 °F19.0 °F43 %29.88 in10.0 miWest (280°)18.4 mph26.5 mphPartly Cloudy
10:51 AM42.1 °F19.0 °F40 %29.88 in10.0 miWNW (290°)15.0 mph28.8 mphScattered Clouds
11:51 AM46.0 °F19.0 °F34 %29.88 in10.0 miWNW (300°)21.9 mph28.8 mphScattered Clouds
12:51 PM46.9 °F18.0 °F32 %29.86 in10.0 miWest (280°)27.6 mph40.3 mphMostly Cloudy
1:51 PM44.6 °F15.8 °F31 %29.85 in10.0 miWNW (300°)20.7 mph38.0 mphMostly Cloudy
2:51 PM48.0 °F17.1 °F29 %29.84 in10.0 miWNW (290°)23.0 mph32.2 mphMostly Cloudy
3:51 PM48.0 °F16.0 °F28 %29.83 in10.0 miWNW (300°)24.2 mph32.2 mphMostly Cloudy
4:05 PM48.2 °F15.8 °F27 %29.83 in10.0 miWNW (290°)21.9 mph29.9 mphMostly Cloudy
4:51 PM46.0 °F16.0 °F30 %29.84 in10.0 miNW (310°)23.0 mph28.8 mphScattered Clouds
5:51 PM46.0 °F15.1 °F29 %29.85 in10.0 miWNW (290°)17.3 mph29.9 mphScattered Clouds
6:51 PM44.1 °F15.1 °F31 %29.86 in10.0 miWNW (290°)15.0 mph27.6 mphScattered Clouds
7:51 PM42.1 °F14.0 °F32 %29.89 in10.0 miWNW (290°)18.4 mphScattered Clouds
8:51 PM41.0 °F15.1 °F35 %29.91 in10.0 miNW (310°)15.0 mph24.2 mphScattered Clouds
9:51 PM39.9 °F16.0 °F38 %29.92 in10.0 miNW (310°)15.0 mph23.0 mphPartly Cloudy
10:51 PM39.0 °F17.1 °F41 %29.94 in10.0 miNW (310°)12.7 mph26.5 mphPartly Cloudy
11:51 PM37.9 °F16.0 °F41 %29.94 in10.0 miNNW (330°)16.1 mph23.0 mphScattered Clouds
Hourly data recorded from KEWR, located miles away from Staten Island, New York







STORIES FROM OUR PARTNERS